• In Hungary
  • List of Countries
  • For 7 days
  • Water Temperature
  • Satellite Maps
  • Weather Map
  • News
  • Weather Widgets
  • user-avatar
    Login

    Hourly Weather Molza

    Today, 19 June, Tuesday

    Time Temperature Precipitation Wind Pressure Humidity
    00:00 +15°C° 0 mm 2 mps 754 mmHg 85%
    01:00 +15°C° 0 mm 1 mps 754 mmHg 86%
    02:00 +15°C° 0 mm 2 mps 754 mmHg 87%
    03:00 +15°C° 0 mm 2 mps 754 mmHg 87%
    04:00 +15°C° 0 mm 2 mps 754 mmHg 87%
    05:00 +17°C° 0 mm 3 mps 754 mmHg 81%
    06:00 +19°C° 0 mm 3 mps 754 mmHg 74%
    07:00 +21°C° 0 mm 4 mps 754 mmHg 66%
    08:00 +22°C° 0 mm 4 mps 754 mmHg 65%
    09:00 +22°C° 0 mm 5 mps 754 mmHg 63%
    10:00 +23°C° 0 mm 5 mps 754 mmHg 62%
    11:00 +23°C° 0.1 mm 5 mps 754 mmHg 63%
    12:00 +23°C° 0.1 mm 5 mps 754 mmHg 65%
    13:00 +23°C° 0 mm 4 mps 754 mmHg 69%
    14:00 +23°C° 0.2 mm 4 mps 754 mmHg 69%
    15:00 +23°C° 0.2 mm 5 mps 754 mmHg 69%
    16:00 +22°C° 0.2 mm 5 mps 754 mmHg 69%
    17:00 +22°C° 0 mm 4 mps 754 mmHg 71%
    18:00 +21°C° 0 mm 3 mps 754 mmHg 73%
    19:00 +20°C° 0 mm 3 mps 754 mmHg 76%
    20:00 +19°C° 0 mm 3 mps 755 mmHg 80%
    21:00 +17°C° 0 mm 2 mps 755 mmHg 84%
    22:00 +16°C° 0 mm 2 mps 755 mmHg 88%
    23:00 +15°C° 0 mm 2 mps 755 mmHg 89%

    Tomorrow, 20 June, Wednesday

    Time Temperature Precipitation Wind Pressure Humidity
    00:00 +15°C° 0 mm 2 mps 756 mmHg 91%
    01:00 +13°C° 0 mm 3 mps 756 mmHg 93%
    02:00 +13°C° 0 mm 3 mps 756 mmHg 93%
    03:00 +12°C° 0 mm 3 mps 756 mmHg 93%
    04:00 +12°C° 0 mm 3 mps 756 mmHg 93%
    05:00 +13°C° 0 mm 3 mps 756 mmHg 85%
    06:00 +15°C° 0 mm 4 mps 756 mmHg 77%
    07:00 +18°C° 0 mm 4 mps 757 mmHg 69%
    08:00 +19°C° 0 mm 4 mps 757 mmHg 65%
    09:00 +20°C° 0 mm 4 mps 757 mmHg 60%
    10:00 +21°C° 0 mm 4 mps 757 mmHg 55%
    11:00 +22°C° 0 mm 4 mps 757 mmHg 53%
    12:00 +23°C° 0 mm 4 mps 756 mmHg 51%
    13:00 +25°C° 0 mm 4 mps 756 mmHg 49%
    14:00 +25°C° 0 mm 3 mps 756 mmHg 49%
    15:00 +25°C° 0 mm 3 mps 756 mmHg 50%
    16:00 +26°C° 0 mm 3 mps 755 mmHg 51%
    17:00 +25°C° 0 mm 2 mps 755 mmHg 57%
    18:00 +24°C° 0 mm 2 mps 755 mmHg 63%
    19:00 +23°C° 0 mm 2 mps 754 mmHg 69%
    20:00 +20°C° 0 mm 2 mps 754 mmHg 72%
    21:00 +19°C° 0 mm 2 mps 754 mmHg 75%
    22:00 +18°C° 0 mm 3 mps 754 mmHg 79%
    23:00 +18°C° 0 mm 3 mps 753 mmHg 80%

    Day after tomorrow, 21 June, Thursday

    Time Temperature Precipitation Wind Pressure Humidity
    00:00 +18°C° 0 mm 3 mps 753 mmHg 82%
    01:00 +18°C° 0 mm 3 mps 753 mmHg 84%
    02:00 +18°C° 0 mm 3 mps 752 mmHg 85%
    03:00 +18°C° 0 mm 3 mps 752 mmHg 85%
    04:00 +19°C° 0 mm 3 mps 752 mmHg 86%
    05:00 +20°C° 0.1 mm 4 mps 751 mmHg 83%
    06:00 +21°C° 0.1 mm 4 mps 751 mmHg 80%
    07:00 +23°C° 0.1 mm 5 mps 750 mmHg 77%
    08:00 +25°C° 0.2 mm 5 mps 750 mmHg 72%
    09:00 +26°C° 0.2 mm 6 mps 749 mmHg 67%
    10:00 +27°C° 0.2 mm 6 mps 749 mmHg 62%
    11:00 +27°C° 0.2 mm 6 mps 748 mmHg 61%
    12:00 +28°C° 0.2 mm 6 mps 747 mmHg 60%
    13:00 +28°C° 0.2 mm 6 mps 746 mmHg 58%
    14:00 +27°C° 0.5 mm 6 mps 745 mmHg 63%
    15:00 +27°C° 0.5 mm 6 mps 744 mmHg 67%
    16:00 +26°C° 0.5 mm 6 mps 744 mmHg 72%
    17:00 +22°C° 1.1 mm 6 mps 744 mmHg 78%
    18:00 +19°C° 1.1 mm 6 mps 744 mmHg 84%
    19:00 +15°C° 1.1 mm 6 mps 744 mmHg 90%
    20:00 +14°C° 0.1 mm 5 mps 744 mmHg 91%
    21:00 +12°C° 0.1 mm 5 mps 744 mmHg 92%
    22:00 +11°C° 0.1 mm 4 mps 745 mmHg 93%
    23:00 +10°C° 0 mm 5 mps 745 mmHg 92%

    22 June, Friday

    Time Temperature Precipitation Wind Pressure Humidity
    00:00 +9°C° 0 mm 5 mps 745 mmHg 90%
    01:00 +9°C° 0 mm 6 mps 745 mmHg 89%
    02:00 +9°C° 0 mm 6 mps 746 mmHg 89%
    03:00 +8°C° 0 mm 6 mps 746 mmHg 89%
    04:00 +8°C° 0 mm 6 mps 746 mmHg 89%
    05:00 +9°C° 0 mm 6 mps 746 mmHg 83%
    06:00 +10°C° 0 mm 7 mps 746 mmHg 77%
    07:00 +11°C° 0 mm 8 mps 746 mmHg 71%
    08:00 +11°C° 0 mm 8 mps 746 mmHg 68%
    09:00 +12°C° 0 mm 8 mps 746 mmHg 66%
    10:00 +12°C° 0 mm 8 mps 747 mmHg 63%
    11:00 +12°C° 0.1 mm 8 mps 747 mmHg 67%
    12:00 +12°C° 0.1 mm 9 mps 747 mmHg 71%
    13:00 +11°C° 0.1 mm 9 mps 747 mmHg 75%
    14:00 +12°C° 0.3 mm 8 mps 747 mmHg 75%
    15:00 +13°C° 0.3 mm 8 mps 747 mmHg 75%
    16:00 +14°C° 0.3 mm 7 mps 747 mmHg 75%
    17:00 +14°C° 0.3 mm 6 mps 748 mmHg 77%
    18:00 +13°C° 0.3 mm 5 mps 748 mmHg 80%
    19:00 +13°C° 0.3 mm 4 mps 748 mmHg 82%
    20:00 +12°C° 0 mm 4 mps 748 mmHg 83%
    21:00 +11°C° 0 mm 4 mps 748 mmHg 84%
    22:00 +10°C° 0 mm 4 mps 748 mmHg 85%
    23:00 +10°C° 0 mm 4 mps 749 mmHg 85%

    23 June, Saturday

    Time Temperature Precipitation Wind Pressure Humidity
    00:00 +10°C° 0 mm 4 mps 749 mmHg 85%
    01:00 +10°C° 0 mm 4 mps 749 mmHg 85%
    02:00 +10°C° 0 mm 4 mps 749 mmHg 87%
    03:00 +8°C° 0 mm 4 mps 749 mmHg 89%
    04:00 +8°C° 0 mm 4 mps 749 mmHg 91%
    05:00 +11°C° 0 mm 4 mps 749 mmHg 85%
    06:00 +12°C° 0 mm 4 mps 749 mmHg 79%
    07:00 +14°C° 0 mm 5 mps 749 mmHg 72%
    08:00 +14°C° 0.2 mm 5 mps 750 mmHg 71%
    09:00 +15°C° 0.2 mm 5 mps 750 mmHg 69%
    10:00 +15°C° 0.2 mm 5 mps 750 mmHg 67%
    11:00 +16°C° 0.3 mm 5 mps 750 mmHg 68%
    12:00 +16°C° 0.3 mm 5 mps 750 mmHg 69%
    13:00 +16°C° 0.3 mm 5 mps 750 mmHg 70%
    14:00 +16°C° 0.2 mm 5 mps 750 mmHg 67%
    15:00 +17°C° 0.2 mm 5 mps 750 mmHg 63%
    16:00 +17°C° 0.2 mm 5 mps 750 mmHg 60%
    17:00 +17°C° 0 mm 4 mps 750 mmHg 63%
    18:00 +16°C° 0 mm 3 mps 750 mmHg 67%
    19:00 +15°C° 0 mm 2 mps 750 mmHg 70%
    20:00 +13°C° 0 mm 2 mps 751 mmHg 73%
    21:00 +11°C° 0 mm 1 mps 751 mmHg 77%
    22:00 +10°C° 0 mm 1 mps 751 mmHg 80%
    23:00 +9°C° 0 mm 1 mps 751 mmHg 80%

    24 June, Sunday

    Time Temperature Precipitation Wind Pressure Humidity
    00:00 +8°C° 0 mm 2 mps 751 mmHg 80%
    01:00 +8°C° 0 mm 2 mps 751 mmHg 80%
    02:00 +8°C° 0 mm 2 mps 751 mmHg 82%
    03:00 +8°C° 0 mm 2 mps 752 mmHg 84%
    04:00 +8°C° 0 mm 2 mps 752 mmHg 86%
    05:00 +10°C° 0 mm 3 mps 752 mmHg 82%
    06:00 +12°C° 0 mm 3 mps 752 mmHg 78%
    07:00 +14°C° 0 mm 3 mps 752 mmHg 73%
    08:00 +17°C° 0 mm 3 mps 752 mmHg 66%
    09:00 +19°C° 0 mm 3 mps 753 mmHg 58%
    10:00 +20°C° 0 mm 3 mps 753 mmHg 50%
    11:00 +20°C° 0 mm 3 mps 753 mmHg 48%
    12:00 +21°C° 0 mm 3 mps 753 mmHg 47%
    13:00 +21°C° 0 mm 3 mps 753 mmHg 45%
    14:00 +21°C° 0 mm 3 mps 753 mmHg 46%
    15:00 +20°C° 0 mm 3 mps 753 mmHg 48%
    16:00 +20°C° 0 mm 3 mps 753 mmHg 49%
    17:00 +19°C° 0 mm 3 mps 753 mmHg 55%
    18:00 +18°C° 0 mm 2 mps 753 mmHg 61%
    19:00 +17°C° 0 mm 2 mps 754 mmHg 67%
    20:00 +15°C° 0 mm 2 mps 754 mmHg 71%
    21:00 +13°C° 0 mm 1 mps 754 mmHg 75%
    22:00 +12°C° 0 mm 1 mps 754 mmHg 79%
    23:00 +11°C° 0 mm 1 mps 754 mmHg 78%
    Show more